Greater Peoria Regional Airport Peoria US
ICAO: KPIA
IATA: PIA
Category: Large
Scheduled Services: Yes

Elevation: 660 ft
TransAlt. 18000 ft.

Airport Communications:
PEORIA APP/DEP:124.675
ASOS:126.1
ATIS:126.1
GND:121.85
ARNG OPS:32.3
ANG OPS:141.55
KANKAKEE RDO:122.35
PEORIA TWR:119.1
UNICOM:122.95

KPIA Zoom In..

If you have problems with the map follow the link
https://www.worldairports.se/pages/airport.php?
ICAO=KPIA

Runways:

(A) RW 04 length 8004 ft width 150 ft
ILS 110.55 / hdg 38

(B) RW 13 length 10104 ft width 150 ft
ILS 109.90 / hdg 126

(C) RW 22 length 8004 ft width 150 ft
---- / hdg 218

(D) RW 31 length 10104 ft width 150 ft
ILS 109.90 / hdg 306

Location; KPIA
Day. 16 / Time. 10.54 Zulu
* Altimeter: 29.91
* Temperature: -02° c. -28.4°f.
* Wind from: 220° Speed 03 kn.
Dewpoint: -03° c.
Visibility: 9 Statute Miles.
Clouds: Overcast 2200 ft.

KPIA 161054Z 22003KT 9SM OVC022 M02/M03 A2991 RMK AO2 SLP136 T10221033


Wind From 220°
Speed 03 kn.

 
 
jpsmedia.com for Web Design worldairports.se 2018   terms of use